Showing default

LASARSAT, 62391

Orbit data source: Space-Track

LASARSAT, 62391 is a Czech payload satellite in LEO that was launched on Sat, 21 Dec 2024 UTC via an FALCON 9 launch vehicle from the Air Force Western Test Range (AFWTR). Payload-class satellites include a variety of spacecraft equipped with specific instruments for various scientific and technological missions. These include communications satellites like Starlink; space stations such as the ISS; scientific satellites like the Hubble; Earth observation satellites from companies like Planet Labs, Umbra, and HawkEye 360; GPS; miniature CubeSats for education and research; and military/defense satellites.

Loading next visibility...
Identifier
62391, 2024-247Q
Orbit
LEO
Country
Flag of CZCZ / CZE
Related business
None
Manufacturer
LASAR
Mission
Operational Amateur Technology
Bus & Motor
CUBESAT 1U, Unknown motor
Mass
1 kg wet, 1 kg dry
Launch date (UTC)
2024-12-21 (1 year ago)
Launch vehicle
FALCON 9
Launch site
Air Force Western Test Range (AFWTR)
Object type
Payload
Rocket body
Debris
Shape & HBR
Box, 0.1 m
Radar Cross Section
0.015 m², Small (<0.1 m²)

Expand to show TLE details & history
Last TLE update: 11 hours ago

TLE from 11 hours ago
0 LASARSAT
1 62391U 24247Q   25346.93281372  .00034206  00000-0  10064-2 0  9993
2 62391  44.9763 219.5604 0002073 142.4633 217.6397 15.34549713 54598
Epoch: 2025-12-12T22:23Z
TLE epoch observation values (Epoch: 2025-12-12T22:23:15.105Z)
Latitude
-0.00004°
Longitude
161.88009°
Altitude
463.377 km
Speed
7.636 km/s
True Right ascension
14h 38m 14s
True Declination
0° 00' 00"
Sunlit
Object was in daylight at epoch
Visualization orbit readout
Latitude
Unknown
Longitude
Unknown
Altitude
Unknown
Speed
Unknown
Apparent Right ascension
Unknown
Apparent Declination
Unknown
Sunlit
N/A
Visualization observer readout
Local Sidereal Time
07:32:45
Azimuth
Unknown
Elevation
Unknown
Doppler factor
Unknown
Orbital elements
Apogee altitude
465.295 km
Perigee altitude
462.458 km
Semi-major axis
6,842.013 km
Eccentricity
0.00021
Inclination
44.9763°
RAAN
219.5604°
Arg. of periapsis
142.4633°
True anomaly
217.6252°
Mean anomaly
217.6397°
Eccentric anomaly
217.63245°
Mean motion
3.83502 °/min
Orbital period
93.87 mins
BSTAR
0.0010064
Loading maneuver chart data...
Computing Atmospheric mass density...
Loading historical data...
Loading historical data...
Loading historical data...
Loading historical data...
Loading historical data...
Loading historical data...
Loading historical data...

Documentation

Showing up to 5 results
|